Simultaneous Nadir Overpasses (SNOs) Predictions

Prediction of SNOs between NOAA-20 and METOP-B Satellite Orbit:

Table of predicted SNOs for the next 14.0 days since TLE Epoch: 4/12/2019
Index Date (NOAA-20) Time (NOAA-20) Lat,Lon (NOAA-20) SZA (NOAA-20 ) Date (METOP-B) Time (METOP-B) Lat,Lon (METOP-B) SZA (METOP-B ) Distance(km) Time Diff (sec)
1 04/20/2019 08:53:24 -73.55,-143.17 117.76 04/20/2019 08:54:31 -73.50,-140.32 117.95 90.12 67
2 04/20/2019 09:44:06 73.36, 24.58 62.02 04/20/2019 09:45:15 73.29, 26.54 61.85 63.04 69
3 04/20/2019 10:34:48 -73.26,-167.89 118.11 04/20/2019 10:35:58 -73.23,-166.27 118.22 52.00 70
4 04/20/2019 11:25:30 73.06, -0.15 61.67 04/20/2019 11:26:42 73.02, 0.60 61.57 24.88 72
5 04/20/2019 12:16:12 -72.96, 167.38 118.46 04/20/2019 12:17:26 -72.91, 167.70 118.54 12.06 74
6 04/20/2019 13:06:56 72.87, -25.10 61.43 04/20/2019 13:08:07 72.85, -25.10 61.40 2.28 71
7 04/20/2019 13:57:40 -72.87, 142.21 118.58 04/20/2019 13:58:49 -72.84, 142.21 118.63 3.33 69
8 04/20/2019 14:48:25 72.82, -50.38 61.36 04/20/2019 14:49:29 72.83, -50.48 61.35 3.23 64
9 04/20/2019 15:39:09 -72.82, 116.93 118.66 04/20/2019 15:40:11 -72.82, 116.83 118.67 3.16 62
10 04/20/2019 16:29:55 72.83, -75.77 61.34 04/20/2019 16:30:50 72.86, -75.75 61.36 3.35 55
11 04/20/2019 17:20:39 -72.83, 91.54 118.67 04/20/2019 17:21:32 -72.85, 91.56 118.67 2.35 53
12 04/20/2019 18:11:25 72.83,-101.16 61.32 04/20/2019 18:12:12 72.84,-101.14 61.32 0.82 47
13 04/20/2019 19:02:09 -72.84, 66.15 118.69 04/20/2019 19:02:54 -72.83, 66.18 118.71 0.91 45
14 04/20/2019 19:52:55 72.84,-126.54 61.30 04/20/2019 19:53:34 72.82,-126.52 61.27 2.54 39
15 04/20/2019 20:43:38 -72.79, 40.87 118.77 04/20/2019 20:44:16 -72.81, 40.80 118.75 3.40 38
16 04/20/2019 21:34:24 72.79,-151.82 61.23 04/20/2019 21:34:56 72.80,-151.90 61.23 2.47 32
17 04/20/2019 22:25:08 -72.80, 15.49 118.78 04/20/2019 22:25:38 -72.79, 15.42 118.79 2.39 30
18 04/20/2019 23:15:54 72.80,-177.21 61.21 04/20/2019 23:16:18 72.78,-177.28 61.19 3.32 24
19 04/21/2019 00:06:38 -72.80, -9.90 118.80 04/21/2019 00:06:59 -72.82, -9.86 118.79 2.64 21
20 04/21/2019 00:57:24 72.81, 157.40 61.19 04/21/2019 00:57:39 72.81, 157.45 61.19 1.47 15
21 04/21/2019 01:48:08 -72.81, -35.29 118.82 04/21/2019 01:48:21 -72.80, -35.24 118.83 1.62 13
22 04/21/2019 02:38:54 72.81, 132.02 61.18 04/21/2019 02:39:01 72.79, 132.06 61.15 2.98 7
23 04/21/2019 03:29:37 -72.76, -60.57 118.89 04/21/2019 03:29:43 -72.78, -60.62 118.87 2.86 6
24 04/21/2019 04:20:23 72.77, 106.73 61.10 04/21/2019 04:20:23 72.77, 106.68 61.11 1.69 0
25 04/21/2019 05:11:07 -72.77, -85.95 118.91 04/21/2019 05:11:05 -72.76, -86.00 118.91 1.63 2
26 04/21/2019 06:01:53 72.77, 81.35 61.09 04/21/2019 06:01:45 72.75, 81.30 61.07 2.96 8
27 04/21/2019 06:52:37 -72.78,-111.34 118.93 04/21/2019 06:52:26 -72.80,-111.28 118.91 3.11 11
28 04/21/2019 07:43:23 72.78, 55.96 61.07 04/21/2019 07:43:06 72.78, 56.03 61.07 2.22 17
29 04/21/2019 08:34:07 -72.78,-136.73 118.95 04/21/2019 08:33:48 -72.78,-136.66 118.95 2.39 19
30 04/21/2019 09:24:52 72.73, 30.68 61.00 04/21/2019 09:24:28 72.76, 30.65 61.03 3.20 24
31 04/21/2019 10:15:36 -72.74,-162.01 119.02 04/21/2019 10:15:10 -72.76,-162.04 118.99 2.44 26
32 04/21/2019 11:06:21 72.74, 5.29 60.98 04/21/2019 11:05:49 72.74, 5.27 60.99 0.89 32
33 04/21/2019 11:57:05 -72.74, 172.60 119.04 04/21/2019 11:56:31 -72.74, 172.58 119.03 0.91 34
34 04/21/2019 12:47:51 72.75, -20.09 60.96 04/21/2019 12:47:11 72.72, -20.11 60.95 2.78 40
35 04/21/2019 13:38:35 -72.75, 147.22 119.05 04/21/2019 13:37:53 -72.72, 147.20 119.07 3.42 42
36 04/21/2019 14:29:21 72.75, -45.48 60.94 04/21/2019 14:28:32 72.75, -45.39 60.95 2.99 49
37 04/21/2019 15:20:05 -72.75, 121.83 119.07 04/21/2019 15:19:14 -72.75, 121.93 119.07 3.19 51
38 04/21/2019 16:10:50 72.71, -70.76 60.87 04/21/2019 16:09:54 72.73, -70.77 60.91 2.90 56
39 04/21/2019 17:01:34 -72.71, 96.55 119.14 04/21/2019 17:00:36 -72.73, 96.55 119.11 2.24 58
40 04/21/2019 17:52:20 72.71, -96.15 60.85 04/21/2019 17:51:16 72.71, -96.15 60.87 0.08 64
41 04/21/2019 18:43:04 -72.71, 71.16 119.16 04/21/2019 18:41:58 -72.71, 71.17 119.15 0.59 66
42 04/21/2019 19:33:50 72.72,-121.54 60.84 04/21/2019 19:32:38 72.69,-121.53 60.82 2.83 72
43 04/21/2019 20:24:34 -72.72, 45.78 119.18 04/21/2019 20:23:20 -72.69, 45.79 119.20 3.42 74
44 04/21/2019 21:15:16 72.52,-146.51 60.60 04/21/2019 21:14:03 72.52,-147.22 60.64 23.91 73
45 04/21/2019 22:05:59 -72.47, 20.91 119.47 04/21/2019 22:04:46 -72.47, 20.00 119.42 30.52 73
46 04/21/2019 22:56:40 72.22,-171.29 60.25 04/21/2019 22:55:31 72.19,-173.21 60.33 65.36 69
47 04/21/2019 23:47:22 -72.12, -3.78 119.87 04/21/2019 23:46:14 -72.14, -5.98 119.73 75.18 68




NCC Satellite Simultaneous Nadir Overpasses (SNOs) Prediction Service
